sat.trackr.live / text

‹ back to catalog

STARLINK-4691

NORAD 53588 · 2022-104A

PAYLOAD ACTIVE UNKNOWN

§ Identity

Operator
Country
US
Launch date
2022-08-28
Launch site
AFETR
Launch vehicle
Mass (kg)
RCS (m²)

Purposes: comms

External: N2YO · Heavens-Above · Gunter

§ Orbital elements

Epoch: 2026-09-19T22:37:12.827712Z

Period
93.79 min
Inclination
53.1612°
Eccentricity
0.0000995
Mean motion
15.35398172 rev/d
Perigee alt
459.1 km
Apogee alt
460.4 km
Semi-major
6,837.9 km
B*
8.4201e-6
RAAN
87.0059°
Arg perigee
106.2283°
Mean anomaly
253.8830°
Rev number
22,548

§ Raw data

STARLINK-46911 53588U 22104A   26262.94250958 -.00000087  00000+0  84201-5 0  99932 53588  53.1612  87.0059 0000995 106.2283 253.8830 15.35398172225487

JSON: /api/v1/satellites/53588 · /tle

For live sub-satellite position, see the globe view (requires WebGL).

§ Visibility from observer

Set your observer location to see the next 7 days of passes ≥ 10°. The values pass through the URL so the page stays shareable.

No JS? Fill the form by hand. The geolocation button needs JavaScript.